www.pogodaiklimat.ru
Время
(UTC), дата
22 12.10
23 12.10
00 13.10
01 13.10
02 13.10
03 13.10
04 13.10
05 13.10
06 13.10
07 13.10
08 13.10
09 13.10
10 13.10
11 13.10
12 13.10
13 13.10
14 13.10
15 13.10
16 13.10
17 13.10
18 13.10
19 13.10
20 13.10
21 13.10
22 13.10
23 13.10
00 14.10
01 14.10
02 14.10
03 14.10
04 14.10
05 14.10
06 14.10
07 14.10
08 14.10
09 14.10
10 14.10
11 14.10
12 14.10
13 14.10
14 14.10
15 14.10
16 14.10
17 14.10
18 14.10
19 14.10
20 14.10
21 14.10
22 14.10
23 14.10
00 15.10
01 15.10
02 15.10
03 15.10
04 15.10
05 15.10
06 15.10
07 15.10
08 15.10
09 15.10
10 15.10
11 15.10
12 15.10
13 15.10
14 15.10
15 15.10
16 15.10
17 15.10
18 15.10
19 15.10
20 15.10
21 15.10
22 15.10
23 15.10
00 16.10
01 16.10
02 16.10
03 16.10
04 16.10
05 16.10
06 16.10
07 16.10
08 16.10
09 16.10
10 16.10
11 16.10
12 16.10
13 16.10
14 16.10
15 16.10
16 16.10
17 16.10
18 16.10
19 16.10
20 16.10
21 16.10
22 16.10
23 16.10
00 17.10
01 17.10
02 17.10
03 17.10
04 17.10
05 17.10
06 17.10
07 17.10
08 17.10
09 17.10
10 17.10
11 17.10
12 17.10
13 17.10
14 17.10
15 17.10
16 17.10
17 17.10
18 17.10
19 17.10
20 17.10
21 17.10
22 17.10
23 17.10
00 18.10
01 18.10
02 18.10
03 18.10
04 18.10
05 18.10
06 18.10
07 18.10
08 18.10
09 18.10
10 18.10
11 18.10
12 18.10
13 18.10
14 18.10
15 18.10
16 18.10
17 18.10
18 18.10
19 18.10
20 18.10
21 18.10
22 18.10
23 18.10
00 19.10
01 19.10
02 19.10
03 19.10
04 19.10
05 19.10
06 19.10
07 19.10
08 19.10
12 19.10
13 19.10
14 19.10
15 19.10
16 19.10
17 19.10
18 19.10
19 19.10
20 19.10
21 19.10
22 19.10
Ветер
(напр.,м/с)
Видим. Явления Облачность Т
(С)
Тd
(С)
f
(%)
Тe
(С)
Тes
(С)
Комфортность P
(гПа)
Po
(гПа)
Тmin
(С)
Tmax
(С)
R
(мм)
R24
(мм)
S
(см)
СЗ 3
{4}
50 км 10/10 1000 м
[]
+7.3 +5.3 87 +4 +4 тепло 1017.0 1014.9
З 3
{5}
50 км 10/10 1000 м
[]
+7.7 +5.7 87 +5 +5 тепло 1017.2 1015.1
ЮЗ 4
{5}
50 км 9/0
[]
+6.8 +4.6 86 +3 +3 по сезону 1017.7 1015.6
ЮЗ 3
{6}
50 км 10/0
[]
+7.0 +4.6 85 +4 +4 тепло 1018.4 1016.3
Ю 1
{4}
50 км 10/10 600 м
[]
+6.5 +5.0 90 +5 +5 тепло 1018.6 1016.5
З 4
{5}
50 км 10/10 600 м
[]
+6.1 +4.5 89 +2 +2 по сезону 1019.1 1017.0
ЮЗ 4
{5}
50 км 10/10 1000 м
[]
+6.3 +4.6 89 +2 +2 по сезону 1019.6 1017.5
З 2
{5}
12 км слаб. ливневой дождь 10/10 300 м
[]
+6.4 +5.0 91 +4 +4 тепло 1020.2 1018.1
ЮЗ 1
{4}
5000 м слаб. ливневой дождь 9/9 300 м
[]
+6.5 +5.6 94 +5 +5 по сезону 1020.9 1018.8 +6.0 +8.1 0.1 0.6
ЮЗ 2
{4}
45 км в посл. час морось 10/10 300 м
[]
+6.6 +5.8 95 +4 +4 тепло 1021.6 1019.5 0.1
ЮВ 1
{4}
50 км 10/10 300 м
[]
+7.0 +6.0 93 +6 +6 тепло 1022.5 1020.4
В 1
{3}
35 км 10/10 1000 м
[]
+8.0 +6.1 88 +7 +7 по сезону 1023.3 1021.1
штиль 0
{2}
45 км 10/10 300 м
[]
+8.6 +6.1 84 +8 +8 тепло 1023.7 1021.6
СЗ 1
{2}
45 км 10/10 600 м
[]
+8.7 +5.9 83 +8 +8 тепло 1024.2 1022.1
З 1
{2}
50 км 10/10 300 м
[]
+9.0 +6.0 81 +8 +8 по сезону 1024.6 1022.5
З 2
{4}
45 км 10/10 600 м
[]
+9.2 +6.6 84 +7 +7 по сезону 1025.0 1022.9
З 2
{4}
50 км 10/10 1000 м
[]
+9.2 +6.3 82 +8 +8 тепло 1025.5 1023.4
З 5
{7}
30 км морось 10/10 1000 м
[]
+8.4 +7.2 92 +5 +5 по сезону 1026.1 1024.0
ЮЗ 4
{7}
50 км 9/9 300 м
[]
+7.9 +6.4 90 +4 +4 по сезону 1026.7 1024.5
С 2
{5}
40 км слаб. ливневой дождь 9/9 1000 м
[]
+8.0 +6.8 92 +6 +6 тепло 1027.2 1025.1 0.3
ЮЗ 3
{7}
35 км морось 10/10 1500 м
[]
+7.5 +6.7 95 +4 +4 по сезону 1027.8 1025.7 +6.4 +9.3 0.1
З 2
{5}
50 км 10/10 300 м
[]
+7.2 +6.5 95 +5 +5 по сезону 1028.4 1026.3
З 4
{6}
21 км морось 10/10 300 м
[]
+7.6 +6.1 90 +4 +4 тепло 1029.1 1027.0
З 4
{6}
40 км слаб. ливневой дождь 9/9 600 м
[]
+7.0 +6.0 93 +3 +3 по сезону 1029.6 1027.5 0.2
З 2
{4}
28 км 10/10 1000 м
[]
+6.9 +6.0 94 +5 +5 тепло 1030.0 1027.9
З 3
{4}
35 км 10/10 1000 м
[]
+6.5 +5.9 96 +3 +3 тепло 1030.6 1028.4
СЗ 2
{5}
35 км 10/10 1000 м
[]
+6.5 +6.1 97 +4 +4 по сезону 1031.0 1028.8
СВ 1
{2}
35 км 10/10 1000 м
[]
+6.3 +6.0 98 +5 +5 тепло 1031.1 1029.0
ЮВ 1
{2}
35 км 10/10 1000 м
[]
+6.2 +5.9 98 +5 +5 тепло 1031.3 1029.2
В 2
{2}
45 км 10/10 1000 м
[]
+6.1 +5.7 97 +3 +3 по сезону 1031.7 1029.5
СВ 2
{3}
40 км в посл. час осадки 8/0
[]
+6.1 +5.6 97 +3 +3 по сезону 1031.8 1029.7
штиль 0
{2}
1000 м дымка 9/0
[]
+4.7 +4.5 99 +3 +3 тепло 1032.1 1030.0
СВ 1
{2}
40 км в посл. час туман 10/10 1000 м
[]
+4.2 +3.9 98 +3 +3 по сезону 1032.5 1030.4 +4.1 +7.8 0.7
СВ 1
{2}
35 км 10/10 50 м
[]
+4.6 +4.2 97 +3 +3 по сезону 1032.9 1030.8
В 2
{2}
30 км 5/0
[]
+5.0 +4.5 97 +2 +2 тепло 1033.3 1031.2

{2}
35 км 3/0
[]
+7.3 +5.2 87 1033.4 1031.3
ЮЗ 2
{3}
50 км 10/10 1000 м
[]
+7.5 +4.4 81 +5 +5 тепло 1033.5 1031.3
З 2
{4}
50 км 10/10 1000 м
[]
+7.9 +3.3 73 +6 +6 тепло 1033.4 1031.2
З 5
{5}
50 км 10/10 600 м
[]
+8.3 +3.7 73 +5 +5 по сезону 1033.3 1031.1
З 4
{5}
50 км 10/10 1000 м
[]
+8.3 +3.6 72 +5 +5 по сезону 1033.1 1031.0
С 3
{6}
26 км слаб. ливневой дождь 8/0
[]
+7.1 +4.7 85 +4 +4 по сезону 1033.0 1030.8
СЗ 2
{5}
50 км в посл. час дождь 10/10 1000 м
[]
+6.6 +5.5 93 +4 +4 по сезону 1033.1 1030.9
Ю 1
{3}
50 км 10/10 600 м
[]
+6.4 +4.9 90 +5 +5 по сезону 1033.0 1030.9
З 5
{7}
7000 м слаб. дождь 10/10 600 м
[]
+6.7 +5.4 91 +2 +2 по сезону 1033.0 1030.8
З 6
{8}
50 км 10/10 300 м
[]
+6.9 +5.1 88 +2 +2 по сезону 1033.0 1030.9 +4.0 +8.5
З 5
{7}
50 км 10/10 300 м
[]
+6.9 +4.8 86 +3 +3 по сезону 1032.8 1030.7
З 4
{6}
50 км 10/10 300 м
[]
+6.7 +4.6 86 +3 +3 тепло 1032.6 1030.5
З 6
{7}
50 км 10/10 300 м
[]
+6.5 +4.8 89 +2 +2 по сезону 1032.5 1030.3
ЮЗ 5
{7}
50 км 10/10 300 м
[]
+7.2 +4.6 84 +3 +3 по сезону 1032.4 1030.3
ЮЗ 4
{6}
50 км 10/10 300 м
[]
+7.2 +4.6 84 +4 +4 тепло 1032.3 1030.1
З 3
{5}
45 км 10/10 300 м
[]
+7.1 +4.7 85 +4 +4 по сезону 1032.1 1030.0
З 3
{5}
50 км в посл. час осадки 10/10 300 м
[]
+7.1 +5.4 89 +4 +4 тепло 1032.0 1029.9
ЮЗ 4
{6}
50 км 10/10 300 м
[]
+7.3 +5.3 87 +4 +4 тепло 1031.6 1029.4
ЮЗ 5
{7}
45 км 10/10 200 м
[]
+7.3 +5.3 87 +3 +3 по сезону 1031.2 1029.1
ЮЗ 4
{6}
8000 м в посл. час морось ?/? +7.0 +5.6 91 +3 +3 по сезону 1031.2 1029.0
ЮВ 1
{4}
6000 м 10/10 300 м
[]
+6.7 +5.7 93 +6 +6 тепло 1031.2 1029.1
З 3
{4}
26 км 10/10 300 м
[]
+6.6 +5.7 94 +3 +3 по сезону 1031.0 1028.8 +6.5 +7.4
З 5
{6}
16 км в посл. час осадки 9/9 300 м
[]
+6.7 +5.9 95 +2 +2 по сезону 1030.9 1028.7
З 5
{9}
5000 м 10/10 300 м
[]
+7.3 +5.8 90 +3 +3 тепло 1030.7 1028.6
З 7
{8}
21 км 10/10 300 м
[]
+7.8 +6.1 89 +3 +3 по сезону 1030.5 1028.4
З 6
{8}
35 км 10/10 200 м
[]
+8.2 +6.1 87 +4 +4 по сезону 1030.2 1028.1
З 8
{9}
50 км 10/10 200 м
[]
+8.5 +6.2 85 +4 +4 тепло 1029.9 1027.8
З 6
{10}
50 км 10/10 600 м
[]
+8.3 +6.9 91 +4 +4 по сезону 1029.6 1027.5
З 7
{9}
50 км 10/10 300 м
[]
+8.4 +6.7 89 +4 +4 по сезону 1029.3 1027.1
З 8
{10}
50 км 10/10 300 м
[]
+8.4 +6.2 86 +4 +4 тепло 1029.0 1026.9
З 9
{11}
50 км 10/10 600 м
[]
+8.1 +6.1 87 +3 +3 по сезону 1028.8 1026.6
З 9
{11}
30 км 10/10 300 м
[]
+8.1 +6.2 88 +3 +3 по сезону 1028.6 1026.5
СЗ 7
{11}
4600 м осадки 10/10 100 м
[]
+7.4 +6.2 92 +3 +3 тепло 1028.7 1026.6
СЗ 6
{10}
40 км в посл. час морось ?/? +7.5 +5.7 88 +3 +3 по сезону 1028.7 1026.6 +6.7 +8.8
СЗ 7
{10}
50 км слаб. ливневой дождь 9/9 600 м
[]
+7.3 +5.1 86 +3 +3 по сезону 1028.6 1026.5
З 8
{11}
9000 м в посл. час осадки 10/10 300 м
[]
+7.2 +5.2 87 +2 +2 тепло 1028.6 1026.5
З 9
{11}
17 км ливневой дождь 10/10 300 м
[]
+7.2 +5.7 90 +2 +2 по сезону 1028.5 1026.3
З 6
{10}
4700 м слаб. ливневой дождь 10/0
[]
+6.7 +5.7 93 +2 +2 по сезону 1028.6 1026.5
З 6
{8}
5000 м слаб. ливневой дождь ?/? +7.1 +5.3 88 +3 +3 тепло 1028.3 1026.2
З 6
{9}
2800 м слаб. ливневой дождь ?/? +7.0 +5.6 91 +2 +2 по сезону 1028.1 1026.0 0.2
З 8
{10}
2800 м морось ?/? +7.2 +6.3 94 +2 +2 по сезону 1028.0 1025.8 0.4
З 7
{10}
2500 м сильн. морось ?/? +7.2 +6.6 96 +2 +2 тепло 1027.8 1025.7 0.5
З 8
{9}
19 км в посл. час морось 10/10 200 м
[]
+7.6 +6.8 95 +3 +3 по сезону 1027.5 1025.4 0.1
З 7
{10}
4000 м морось ?/? +7.8 +7.1 95 +3 +3 тепло 1027.4 1025.3
З 8
{9}
17 км слаб. ливневой дождь 10/10 100 м
[]
+7.9 +7.4 97 +3 +3 тепло 1027.5 1025.4 0.5
СЗ 4
{9}
50 км в посл. час осадки 8/0
[]
+7.5 +6.4 93 +4 +4 по сезону 1027.6 1025.5 +6.6 +8.3 1.7
СЗ 3
{6}
50 км 1/0
[]
+7.4 +5.6 88 +4 +4 тепло 1028.1 1025.9
СЗ 6
{7}
50 км 8/8 600 м
[]
+8.1 +6.1 87 +4 +4 тепло 1028.3 1026.2
СЗ 6
{7}
50 км 10/10 600 м
[]
+8.3 +5.9 85 +4 +4 по сезону 1028.5 1026.4
З 6
{7}
30 км 10/10 600 м
[]
+8.6 +5.8 83 +5 +5 тепло 1028.4 1026.3
З 5
{7}
6000 м слаб. ливневой дождь 10/10 200 м
[]
+8.5 +7.2 92 +5 +5 тепло 1028.4 1026.3 0.2
З 6
{7}
50 км 10/10 600 м
[]
+8.9 +6.9 87 +5 +5 по сезону 1028.0 1025.9 0.1
З 5
{7}
45 км 10/10 300 м
[]
+8.7 +6.9 88 +5 +5 по сезону 1027.6 1025.5
З 6
{7}
50 км 10/10 600 м
[]
+8.8 +6.7 87 +5 +5 тепло 1027.4 1025.3
З 4
{7}
50 км 10/10 600 м
[]
+8.8 +6.7 87 +6 +6 по сезону 1026.7 1024.6
З 5
{7}
10 км слаб. ливневой дождь 10/10 300 м
[]
+8.4 +6.9 90 +5 +5 тепло 1026.1 1024.0
З 4
{6}
35 км слаб. ливневой дождь 9/9 300 м
[]
+8.0 +7.1 94 +5 +5 тепло 1025.8 1023.6 0.1
З 4
{7}
6000 м слаб. ливневой дождь 10/10 300 м
[]
+7.9 +7.2 95 +4 +4 по сезону 1025.2 1023.1 +7.3 +9.5
ЮЗ 5
{7}
4200 м слаб. ливневой дождь 9/9 200 м
[]
+7.6 +6.6 93 +4 +4 тепло 1024.5 1022.4 0.2
З 4
{7}
4900 м слаб. ливневой дождь 10/0
[]
+7.6 +6.6 93 +4 +4 тепло 1024.0 1021.9 0.1
ЮЗ 4
{6}
26 км в посл. час дождь 8/8 600 м
[]
+7.4 +6.2 92 +4 +4 по сезону 1023.2 1021.1 0.2
ЮЗ 4
{6}
28 км в посл. час морось 10/10 300 м
[]
+7.5 +5.7 88 +4 +4 тепло 1022.4 1020.3
ЮЗ 8
{10}
50 км 10/10 600 м
[]
+8.2 +5.0 80 +4 +4 тепло 1021.3 1019.2
ЮЗ 7
{9}
50 км 10/10 600 м
[]
+8.1 +5.1 81 +4 +4 по сезону 1020.3 1018.2
З 6
{10}
6000 м слаб. ливневой дождь 10/10 300 м
[]
+7.2 +6.5 95 +3 +3 тепло 1019.4 1017.3
З 7
{10}
4000 м морось 10/0
[]
+7.4 +6.0 91 +3 +3 тепло 1018.4 1016.3
З 11
{15}
4500 м сильн. морось 10/0
[]
+7.0 +6.2 95 +1 +1 по сезону 1017.7 1015.6 1
З 12
{16}
5000 м слаб. ливневой дождь 9/0
[]
+6.9 +5.7 92 +1 +1 по сезону 1017.0 1014.9 0.2
З 8
{13}
45 км слаб. ливневой дождь 10/10 600 м
[]
+7.1 +4.3 82 +2 +2 тепло 1016.0 1013.9 0.2
ЮЗ 8
{13}
30 км слаб. ливневой дождь 10/10 600 м
[]
+6.5 +4.6 88 +1 +1 по сезону 1015.5 1013.4 +6.5 +8.3 0.7 3.0
ЮЗ 8
{11}
50 км в посл. час морось 10/10 600 м
[]
+6.9 +4.3 83 +2 +2 тепло 1014.3 1012.2
З 13
{16}
7000 м слаб. дождь ?/? +6.9 +5.5 91 0 0 тепло 1013.8 1011.7 0.6
З 12
{15}
13 км слаб. ливневой дождь 10/10 300 м
[]
+7.0 +5.8 92 +1 +1 по сезону 1013.0 1010.9 0.8
З 11
{18}
14 км слаб. ливневой дождь 10/10 600 м
[]
+6.2 +3.8 85 -0 -0 по сезону 1012.8 1010.7 0.4
СЗ 10
{15}
30 км морось 9/9 600 м
[]
+5.9 +2.9 81 -0 -0 тепло 1012.8 1010.7 0.1
З 11
{17}
30 км в посл. час дождь 10/10 1000 м
[]
+6.2 +2.0 74 0 0 прохладно 1012.2 1010.1
З 14
{17}
27 км 6/0 2000 м
[]
+7.2 +0.4 62 +1 +1 по сезону 1011.0 1008.9
З 12
{20}
45 км в посл. час морось 10/10 600 м
[]
+5.9 +1.5 73 -1 -1 по сезону 1009.6 1007.5
СЗ 15
{25}
17 км ливневой дождь 8/0
[]
+5.3 +2.2 80 -2 -2 прохладно 1009.0 1006.9 1
СЗ 11
{17}
45 км слаб. ливневой дождь 5/0
[]
+5.6 +1.1 73 -1 -1 по сезону 1009.1 1007.0 0.8
З 14
{20}
26 км слаб. ливневой дождь 9/9 1000 м
[]
+6.3 +2.4 76 -0 -0 по сезону 1008.3 1006.2
З 11
{19}
24 км слаб. ливневой дождь 8/8 600 м
[]
+5.6 +2.7 82 -1 -1 прохладно 1008.8 1006.7 +4.3 +7.5 0.6
СЗ 6
{18}
12 км слаб. ливневой дождь ?/? +5.4 +2.2 80 +1 +1 по сезону 1009.3 1007.2 0.2
СЗ 11
{18}
28 км слаб. ливневой дождь 5/0
[]
+5.3 +1.1 74 -1 -1 по сезону 1009.5 1007.4
СЗ 11
{16}
28 км 5/0
[]
+6.1 +0.2 66 0 0 по сезону 1009.2 1007.1
З 13
{17}
26 км 10/10 1000 м
[]
+6.2 +1.0 69 -0 -0 по сезону 1008.9 1006.8
СЗ 12
{18}
13 км ливневой дождь 8/0
[]
+5.2 +1.7 78 -2 -2 по сезону 1009.0 1006.9 0.1
СЗ 13
{18}
21 км слаб. ливневой дождь 8/8 600 м
[]
+4.8 +1.8 81 -2 -2 прохладно 1009.1 1007.0 0.1
СЗ 12
{16}
45 км слаб. ливневой дождь 6/0 2000 м
[]
+4.8 +1.1 77 -2 -2 по сезону 1009.1 1007.0
СЗ 10
{16}
24 км слаб. ливневой дождь 10/0
[]
+5.1 +1.5 78 -1 -1 тепло 1008.9 1006.8
С 9
{15}
4600 м сильн. ливневой дождь ?/? +3.4 +1.4 87 -3 -3 прохладно 1009.5 1007.4 1
СЗ 10
{17}
27 км слаб. ливневой дождь 6/0
[]
+3.9 +1.6 85 -3 -3 по сезону 1009.5 1007.3 1
СЗ 8
{16}
45 км 6/0
[]
+4.2 +1.4 82 -2 -2 тепло 1009.2 1007.1
СЗ 9
{13}
50 км в посл. час морось ясно +3.7 +0.8 81 -3 -3 прохладно 1009.3 1007.2 +3.4 +6.3 7.2
СЗ 7
{11}
40 км 10/10 1000 м
[]
+4.5 +1.1 79 -1 -1 по сезону 1010.0 1007.9
СЗ 7
{11}
50 км 8/8 1500 м
[]
+4.5 +0.6 76 -1 -1 тепло 1010.1 1008.0
СЗ 7
{10}
50 км в посл. час морось 8/0
[]
+4.1 +1.1 81 -2 -2 прохладно 1010.2 1008.1
СЗ 8
{10}
45 км ясно +5.7 +0.9 71 0 +1 по сезону 1010.1 1008.0
З 9
{11}
35 км 1/1 600 м
[]
+6.4 +0.7 67 +1 +1 тепло 1010.2 1008.1
З 8
{11}
35 км 4/0
[]
+6.6 +1.6 70 +2 +2 по сезону 1010.1 1008.0
З 9
{10}
30 км 3/0
[]
+6.5 +1.5 70 +1 +1 по сезону 1010.2 1008.1
СЗ 10
{14}
24 км слаб. ливневой дождь 5/0
[]
+3.9 +1.2 83 -3 -3 по сезону 1011.0 1008.9 0.2
СЗ 3
{12}
50 км в посл. час морось 9/9 1500 м
[]
+3.2 +1.6 89 -1 -1 прохладно 1010.7 1008.5 0.1
СЗ 7
{9}
45 км слаб. ливневой дождь 8/8 1000 м
[]
+4.3 +1.5 82 -1 -1 по сезону 1010.5 1008.4
З 10
{12}
50 км в посл. час дождь 6/6 1500 м
[]
+4.7 +1.3 79 -2 -2 по сезону 1010.3 1008.2
СЗ 9
{14}
5000 м ливневой дождь ?/? +2.5 +1.0 90 -5 -5 холодно 1010.8 1008.7 +2.5 +7.1 0.2
СЗ 6
{10}
30 км слаб. ливневой дождь 10/0 2000 м
[]
+3.8 +1.9 87 -2 -2 по сезону 1010.9 1008.8 0.7
СЗ 7
{9}
50 км 10/10 600 м
[]
+3.7 +1.4 85 -2 -2 по сезону 1010.8 1008.7
СЗ 6
{8}
22 км слаб. ливневой дождь 9/9 1500 м
[]
+3.8 +1.3 84 -2 -2 прохладно 1011.2 1009.0
З 6
{9}
50 км 9/9 1000 м
[]
+3.8 +1.5 85 -2 -2 по сезону 1011.3 1009.2 0.2
С 4
{7}
50 км 9/9 1500 м
[]
+4.1 +1.6 84 -0 -0 тепло 1011.6 1009.5
СЗ 3
{7}
50 км 10/10 600 м
[]
+4.2 +1.1 80 +1 +1 по сезону 1011.8 1009.7
СЗ 5
{8}
14 км дождь 9/9 1500 м
[]
+3.1 +1.7 91 -2 -2 по сезону 1012.3 1010.2 0.9
СЗ 5
{7}
50 км в посл. час дождь 4/4 1500 м
[]
+2.9 +1.6 91 -3 -3 по сезону 1012.1 1009.9 0.1
З 6
{8}
50 км слаб. ливневой дождь 10/10 300 м
[]
+3.4 +2.1 91 -2 -2 по сезону 1012.2 1010.0
н/о
СЗ 3
{8}
50 км в посл. час морось 10/10 600 м
[]
+3.7 +2.0 89 -0 -0 тепло 1012.4 1010.2
З 5
{7}
50 км в посл. час дождь 10/10 300 м
[]
+3.9 +2.1 88 -1 -1 по сезону 1012.7 1010.6 +2.5 +4.3 0.2 2.6
З 4
{8}
50 км 10/10 300 м
[]
+4.0 +2.3 89 -1 -1 по сезону 1013.2 1011.0
З 7
{9}
50 км 10/10 300 м
[]
+4.0 +2.2 88 -2 -2 тепло 1013.6 1011.5
З 7
{11}
50 км 10/10 1500 м
[]
+5.0 +2.2 82 -1 -1 прохладно 1015.0 1012.9
З 5
{8}
50 км ясно +4.8 +2.1 83 0 +1 по сезону 1015.6 1013.5
З 6
{7}
50 км 6/0
[]
+5.9 +2.4 78 +1 +1 тепло 1015.7 1013.6
З 4
{7}
50 км ясно +5.4 +1.8 78 +2 +2 по сезону 1015.8 1013.6
З 3
{8}
50 км 3/0
[]
+3.3 +1.0 85 -1 -1 по сезону 1016.1 1013.9
ЮВ 2
{5}
50 км 10/10 1500 м
[]
+2.6 +1.2 90 -1 -1 тепло 1016.6 1014.5
В 3
{5}
35 км 4/4 300 м
[]
+1.5 +0.7 94 -3 -3 прохладно 1016.9 1014.8 +1.5 +5.9
В 2
{3}
40 км 4/0
[]
+0.3 -0.2 96 -3 -3 по сезону 1017.2 1015.0
В 4
{5}
35 км ясно -0.2 -0.6 97 -6 -6 по сезону 1017.3 1015.2
В 3
{5}
40 км ясно -0.8 -1.2 97 -6 -6 холодно 1017.2 1015.1
В 2
{4}
50 км 9/0
[]
-0.2 -0.5 98 -4 -4 по сезону 1017.0 1014.9
Местоположение метеостанции Тронхейм (Норвегия): широта 63.46 долгота 10.94 высота над уровнем моря 12 м.
В архиве по умолчанию представлена погода в Тронхейме за последнюю неделю. Архивные данные за месяц целиком и за предыдущие месяцы, начиная с января 2011 года, Вы можете получить, выбрав интересующий диапазон дат из раскрывающегося списка и нажав кнопку "Найти!".
*Определитесь, кто Вы:
Внимание! Время в таблицах - всемирное. Для получения местного времени необходимо прибавить поправку, которая равна 1 ч.
Смотрите также архив погоды в соседних городах и на ближайших метеорологических станциях:
Партнеры нашего сайта:      
Пояснения к столбцам:
  • Ветер - указаны скорость ветра в м/с - средняя за 10 мин, порывы в срок и между сроками (в фигурных скобках) и направление, откуда дует ветер: С - северный,
  • СВ - северо-восточный, В - восточный, ЮВ - юго-восточный, Ю - южный, ЮЗ - юго-западный, З - западный, СЗ - северо-западный.
  • Видимость - горизонтальная дальность видимости в метрах или километрах. При видимости от 1 до 10 км при отсутствии осадков обычно наблюдается дымка, при ухудшении видимости до 1 км и менее - туман. В сухую погоду видимость может ухудшаться дымом, пылью или мглою.
  • Явления - указаны атмосферные явления, наблюдавшиеся в срок или в последний час перед сроком; фигурными скобками обозначены явления, наблюдавшиеся между сроками (за 1-3 часа до срока); квадратными скобками обозначены град или гололедные отложения с указанием их диаметра в мм.
  • Облачность - указаны через наклонную черту общая и нижняя облачность в баллах и высота нижней границы облаков в метрах; квадратными скобками обозначены формы облаков: Ci - перистые, Cs - перисто-слоистые, Cc - перисто-кучевые, Ac - высококучевые, As - высокослоистые, Sc - слоисто-кучевые, Ns - слоисто-дождевые, Cu - кучевые, Cb - кучево-дождевые. Подробнее классификацию облаков см. в Атласе облаков (PDF).
  • T - Температура воздуха - температура, измеренная на высоте 2 м над землей.
  • Td - Температура точки росы - температура, при понижении до которой содержащийся в воздухе водяной пар достигнет насыщения.
  • f - Относительная влажность воздуха - влажноcть воздуха, измеренная на высоте 2 м над землей.
  • Te - Эффективная температура - температура, которую ощущает одетый по сезону человек в тени. Характеристика душности погоды. При расчете учитывается влияние влажности воздуха и скорости ветра на теплоощущения человека.
  • Tes - Эффективная температура на солнце - температура, которую ощущает человек, с поправкой на солнечный нагрев. Характеристика знойности погоды. Зависит от высоты солнца над горизонтом, облачности и скорости ветра. Ночью, в пасмурную погоду, а также при ветре 12 м/с и более поправка равна нулю.
  • P - Атмосферное давление - приведенное к уровню моря атмосферное давление.
  • Po - Атмосферное давление - измеренное на уровне метеостанции атмосферное давление.
  • Tmin - Минимальная температура - минимум температуры воздуха на высоте 2 м над землей.
  • Tmax - Максимальная температура - максимум температуры воздуха на высоте 2 м над землей.
  • R - Количество осадков - Количество выпавших осадков за период времени, мм. При наведении курсора мыши на число - период времени, за который выпало указанное количество осадков.
  • R24 - Количество осадков - Количество выпавших осадков за 24 часа, мм.
  • S - Снежный покров - Высота снежного покрова, см. При наведении курсора мыши на число - состояние снежного покрова и степень покрытия местности в баллах.